Simultaneous Nadir Overpasses (SNOs) Predictions

Prediction of SNOs between NOAA-20 and LANDSAT-9 Satellite Orbit:

Table of predicted SNOs for the next 14.0 days since TLE Epoch: 11/2/2024
Index Date (NOAA-20) Time (NOAA-20) Lat,Lon (NOAA-20) SZA (NOAA-20 ) Date (LANDSAT-9) Time (LANDSAT-9) Lat,Lon (LANDSAT-9) SZA (LANDSAT-9 ) Distance(km) Time Diff (sec)
1 11/04/2024 15:42:59 -70.00, 120.37 94.45 11/04/2024 15:43:43 -70.00, 120.41 94.46 1.73 44
2 11/04/2024 16:33:43 69.86, -72.11 85.42 11/04/2024 16:33:11 69.84, -72.17 85.39 3.53 32
3 11/07/2024 07:09:18 70.51, 68.04 86.85 11/07/2024 07:10:28 70.38, 69.24 86.72 46.93 70
4 11/07/2024 07:59:50 -69.92,-123.72 93.74 11/07/2024 08:00:04 -69.93,-123.76 93.73 2.62 14
5 11/07/2024 08:50:35 69.83, 43.71 86.19 11/07/2024 08:49:31 69.82, 43.72 86.18 1.05 64
6 11/09/2024 23:26:01 69.97,-175.36 87.08 11/09/2024 23:26:54 69.98,-175.41 87.08 2.03 53
7 11/10/2024 00:16:42 -69.85, -7.86 93.04 11/10/2024 00:16:24 -69.86, -7.94 93.03 3.22 18
8 11/10/2024 01:07:11 68.92, 160.78 86.04 11/10/2024 01:06:05 68.97, 158.52 86.09 90.64 66
9 11/12/2024 14:52:24 -70.86, 131.71 91.31 11/12/2024 14:53:31 -70.79, 134.07 91.38 86.63 67
10 11/12/2024 15:42:53 69.95, -59.53 87.78 11/12/2024 15:43:11 69.96, -59.50 87.80 2.35 18
11 11/12/2024 16:33:34 -69.82, 107.97 92.34 11/12/2024 16:32:41 -69.85, 107.98 92.32 3.00 53
12 11/15/2024 07:09:00 -70.02,-111.17 91.47 11/15/2024 07:10:00 -70.01,-111.13 91.47 1.51 60
13 11/15/2024 07:59:44 69.89, 56.33 88.42 11/15/2024 07:59:27 69.89, 56.34 88.42 0.57 17
14 11/15/2024 08:50:15 -69.23,-135.40 92.23 11/15/2024 08:49:05 -69.34,-136.78 92.14 55.38 70



Historial Predications of SNOs between NOAA-20 and LANDSAT-9
